This is the latest recevied weather packets stored in our database for station/object F1AGU-13. If no packets are shown the sender has not sent any weather packets the latest 10 day(s).
| Time | Temp. | Humidity | Pressure | Rain* | Wind** | Luminosity | Snow |
|---|---|---|---|---|---|---|---|
| 1777485316 | 15° C | 78% | 1016.3 hPa | 0 mm | - | - | - |
| 1777484716 | 15° C | 78% | 1016.1 hPa | 0 mm | - | - | - |
| 1777484116 | 15° C | 77% | 1016.1 hPa | 0 mm | - | - | - |
| 1777483516 | 15.56° C | 77% | 1016 hPa | 0 mm | - | - | - |
| 1777482916 | 15.56° C | 77% | 1016.1 hPa | 0 mm | - | - | - |
| 1777482316 | 16.11° C | 75% | 1016.3 hPa | 0 mm | - | - | - |
| 1777481716 | 16.67° C | 73% | 1016.4 hPa | 0 mm | - | - | - |
| 1777481116 | 17.22° C | 73% | 1016.6 hPa | 0 mm | - | - | - |
| 1777480516 | 17.22° C | 72% | 1016.5 hPa | 0 mm | - | - | - |
| 1777479916 | 17.22° C | 71% | 1016.3 hPa | 0 mm | - | - | - |
| 1777479316 | 17.22° C | 70% | 1016.4 hPa | 0 mm | - | - | - |
| 1777478716 | 17.22° C | 71% | 1016.3 hPa | 0 mm | - | - | - |
| 1777478116 | 16.67° C | 72% | 1016.3 hPa | 0 mm | - | - | - |
| 1777477516 | 17.22° C | 71% | 1016.3 hPa | 0 mm | - | - | - |
| 1777476916 | 17.78° C | 73% | 1016.5 hPa | 0 mm | - | - | - |
| 1777476316 | 17.78° C | 72% | 1016.4 hPa | 0 mm | - | - | - |
| 1777475716 | 18.33° C | 73% | 1016.5 hPa | 0 mm | - | - | - |
| 1777475116 | 18.33° C | 72% | 1016.8 hPa | 0 mm | - | - | - |
| 1777474516 | 17.78° C | 73% | 1016.7 hPa | 0 mm | - | - | - |
| 1777473916 | 18.33° C | 75% | 1016.9 hPa | 0 mm | - | - | - |
| 1777473316 | 18.33° C | 74% | 1016.9 hPa | 0 mm | - | - | - |
| 1777472116 | 18.33° C | 69% | 1016.7 hPa | 0 mm | - | - | - |
| 1777471516 | 17.78° C | 72% | 1016.8 hPa | 0 mm | - | - | - |
| 1777470916 | 17.78° C | 74% | 1016.9 hPa | 0 mm | - | - | - |
| 1777470316 | 17.22° C | 71% | 1017 hPa | 0 mm | - | - | - |
* Rain latest hour (hover to see other rain measurements)
** Current wind speed in m/s (hover to see current wind gust speed)